Terminal Aerodrome Forecast
Issued by NWS Binghamton, NY

Home | Current Version | Previous Version | Text Only | Print | Product List | Glossary On
Versions: 1 2 3 4 5 6 7 8 9 10 11 12 13 14 15 16 17 18
000
FTUS41 KBGM 190500
TAFBGM
TAF
KBGM 190532Z 1906/2006 30006KT P6SM SCT018 OVC040
      TEMPO 1906/1908 OVC018
     FM190800 32008KT P6SM OVC025
     FM191100 30007KT P6SM SCT025
     FM191400 33012G18KT P6SM BKN025
     FM191700 34013G21KT P6SM SCT040
     FM192000 36014G23KT P6SM SKC
     FM200000 02006KT P6SM SKC=

USA.gov is the U.S. government's official web portal to all federal, state and local government web resources and services.